Starlink 33577

operational
NORAD ID: 62762 Int'l Des: 2025-015 Owner: SPXS Country: US Constellation: starlink
LEOCIRCULAR

Starlink 33577について

説明を読み込み中...

リアルタイム位置

3D地球を読み込み中...

次回通過

高度履歴

Altitude vs Time

uPlot chart will show altitude changes over time

軌道要素

1 62762U 25015E 25352.23128703 .00022965 00000-0 78490-3 0 9994
2 62762 53.1622 340.5288 0001353 80.0169 280.0984 15.30208787 52010
Epoch: Dec 18, 2025 • Age: 13 hours

現在のステータス

高度 475.0 km
速度 7.63 km/s
衛星直下点 8.81°N, 14.96°W
打ち上げ日 Jan 21, 2025
運用期間 0.9 years
タイプ internet

技術仕様

分類 Payload
質量 575.00 kg
乾燥質量 530.00 kg
総質量 575.00 kg
長さ 0.30 m
直径 4.10 m
スパン 29.00 m
形状 Box + pan
製造者 SPXS
バスタイプ Starlink V2MO
フェーズステータス In Orbit
所有者/国 SPXS/US

大規模コンステレーション

Loading constellations...